Retour au catalogue

GALILEO 14

26B

ActifNavigationMEO
NORAD 41549·PAYLOAD·🇪🇺 EU

Lancé May 24, 2016 depuis Guiana Space Centre

Loading…

Prochains Passages (prochaines 24 heures)

TLE

FraisSource: CelesTrak SupGP

Époque: Sep 13, 2026, 23:59 UTC

1 41549C 16030A   26256.99979167  .00000000  00000+0  00000+0 0  2565
2 41549  55.0750 219.2532 0003867 334.2904  51.8414  1.70473257    10

Suivez GALILEO 14 en temps réel avec AllMySat

Download on the App Store